Tracking 29511 objects as of 17-Sep-2024
HD Live streaming from Space Station
objects crossing your sky now

FENGYUN 1C DEB

Track FENGYUN 1C DEB now!
10-day predictions


NORAD ID: 30557
Int'l Code: 1999-025AKX
Perigee: 825.3 km
Apogee: 926.9 km
Inclination: 99.0 °
Period: 102.3 minutes
Semi major axis: 7247 km
RCS: 0.043 m2 (small)
Launch date: May 10, 1999
Source: People's Republic of China (PRC)
Launch site: Taiyaun Space Center, China (TSC)

Note: This is SATELLITE DEBRIS
Your satellite tracking list
Your tracking list is empty




NASA's NSSDC Master Catalog

Two Line Element Set (TLE):
1 30557U 99025AKX 24261.10377699  .00006182  00000-0  36306-2 0  9999
2 30557  98.9511 323.9017 0070049  65.6747 295.1715 14.07204854899398
Source of the keplerian elements: AFSPC